OBJECT AW, 59142

Orbit data source: Space-Track

You're viewing an Uncataloged Satellite

Recently launched and/or uncataloged satellites may have evolving metadata. Metadata may include but not limited to: Owner, Maufacturer, Bus, Motor, and Mission.

OBJECT AW, 59142 is a satellite in SSO that was launched on Mon, 04 Mar 2024 UTC via an FALCON 9 launch vehicle from the Air Force Western Test Range (AFWTR). Unknown objects in Earth's orbit typically refer to objects detected orbiting the Earth but have not yet been identified or cataloged. These objects could be anything from previously untracked satellites, spent rocket stages, debris from satellite collisions, or even natural meteoroids temporarily captured by Earth's gravity.

Not visible in the next 10 days
Identifier
59142, 2024-043AW
Orbit
SSO
Country
Flag of TBDTBD
Related business
None
Manufacturer
Unknown
Mission
Operational Commercial Weather
Bus & Motor
Unknown
Mass
Unknown
Launch date (UTC)
2024-03-04 (2 years ago)
Launch vehicle
FALCON 9
Launch site
Air Force Western Test Range (AFWTR)
Object type
Unknown
Shape & HBR
Box, 0.1 m
Radar Cross Section
0.015 m², Small (<0.1 m²)

Expand to show TLE details & history
Last TLE update: 8 hours ago

TLE from 8 hours ago
0 OBJECT AW
1 59142U 24043AW  26125.41578654  .00297808  00000-0  10873-2 0  9995
2 59142  97.5379 281.7638 0005105 276.2565  83.8125 15.87666002121789
Epoch: 2026-05-05T09:58Z
TLE epoch observation values (Epoch: 2026-05-05T09:58:43.957Z)
Latitude
0.00004°
Longitude
-91.21031°
Altitude
311.64 km
Speed
7.721 km/s
True Right ascension
18h 47m 03s
True Declination
0° 00' 00"
Sunlit
Object was in full shadow at epoch
Visualization orbit readout
Latitude
Unknown
Longitude
Unknown
Altitude
Unknown
Speed
Unknown
Apparent Right ascension
Unknown
Apparent Declination
Unknown
Sunlit
N/A
Visualization observer readout
Local Sidereal Time
01:23:45
Azimuth
Unknown
Elevation
Unknown
Doppler factor
Unknown
Orbital elements
Apogee altitude
309.123 km
Perigee altitude
302.298 km
Semi-major axis
6,683.848 km
Eccentricity
0.00051
Inclination
97.5379°
RAAN
281.7638°
Arg. of periapsis
276.2565°
True anomaly
83.87066°
Mean anomaly
83.8125°
Eccentric anomaly
83.84158°
Mean motion
3.97195 °/min
Orbital period
90.64 mins
BSTAR
0.0010873
Loading maneuver chart data...
Computing Atmospheric mass density...
Loading historical data...
Loading historical data...
Loading historical data...
Loading historical data...
Loading historical data...
Loading historical data...
Loading historical data...

Documentation

Showing up to 5 results
|